Regional Weather Roundup
Issued by NWS Charleston, SC

Current Version | Previous Version | Text Only | Print | Product List | Glossary Off
Versions: 1 2 3 4 5 6 7 8 9 10 11 12 13 14 15 16 17 18 19 20 21 22 23 24 25 26 27 28 29 30 31 32 33 34 35 36 37 38 39 40 41 42 43 44 45 46 47 48 49 50

000
ASUS42 KCHS 011410
RWRCHS

REGIONAL WEATHER ROUNDUP
NATIONAL WEATHER SERVICE CHARLESTON SC
1000 AM EDT MON SEP 01 2014

NOTE: "FAIR" INDICATES FEW OR NO CLOUDS BELOW 12,000 FEET WITH NO
SIGNIFICANT WEATHER AND/OR OBSTRUCTIONS TO VISIBILITY.

NOT ALL STATIONS ARE QUALITY CONTROLLED BY THE NATIONAL
WEATHER SERVICE. USE DATA WITH CAUTION...ESPECIALLY
DEWPOINT OBSERVATIONS.

SCZ027-030-031-034>040-042>050-011500-
...SOUTH CAROLINA...

CITY           SKY/WX    TMP DP  RH WIND       PRES   REMARKS
N CHARLESTON   MOSUNNY   85  73  67 W3        30.12F HX  91
WATERFRONT PRK   N/A     84 N/A N/A W3          N/A
FORT JOHNSON   NOT AVBL
MOUNT PLEASANT FAIR      84  77  79 W6        30.12F HX  94
JOHNS ISLAND   SUNNY     88  79  74 W6        30.12F HX 102
PINOPOLIS        N/A     86  77  74 CALM      30.05R HX  97
MONCKS CORNER    N/A     84  77  79 CALM      30.12S HX  94
SUMMERVILLE    FAIR      82  79  89 CALM      30.13S HX  93
BEAUFORT MCAS  SUNNY     85  72  65 N5        30.13S HX  91
BEAUFORT ARPT  FAIR      82  73  74 CALM      30.12S
HILTON HEAD IS MOSUNNY   84  73  70 NW5       30.14S HX  91
GEORGETOWN     NOT AVBL
WALTERBORO     SUNNY     84  77  79 NW3       30.13F HX  94
ORANGEBURG     SUNNY     84  70  62 W3        30.13S
BARNWELL       FAIR      81  73  78 CALM      30.14S
AIKEN          FAIR      82  73  74 CALM      30.17S
MANNING        FAIR      82  77  83 CALM      30.13S HX  91
KINGSTREE      NOT AVBL
COLUMBIA       MOSUNNY   81  74  79 S5        30.12S
SUMTER         SUNNY     80  75  84 CALM      30.12S
FLORENCE       MOSUNNY   83  73  72 CALM      30.12S
MYRTLE BEACH   NOT AVBL
N MYRTLE BEACH MOSUNNY   85  75  72 W5        30.12F HX  93

$$

GAZ063-065-086>088-099>101-113>116-118-119-134-136>141-150-011500-
...GEORGIA...

CITY           SKY/WX    TMP DP  RH WIND       PRES   REMARKS
SAVANNAH ARPT  PTSUNNY   84  72  67 NW5       30.13S
HUNTER AAF     SUNNY     84  73  69 VRB1      30.11F HX  91
FORT STEWART   MOSUNNY   83  72  70 CALM      30.12S
STATESBORO     NOT AVBL
SYLVANIA       MOSUNNY   69  68  98 CALM      30.14F
CLAXTON        NOT AVBL
THOMSON        MOSUNNY   84  77  80 CALM      30.18S HX  94
AUGUSTA-BUSH   MOSUNNY   81  74  79 CALM      30.13R HAZE
AUGUSTA-DANIEL SUNNY     83  73  72 VRB5      30.14S
SWAINSBORO     FAIR      82  79  89 CALM      30.14S HX  93
VIDALIA          N/A     81  75  83 N6        30.14S
ALMA           SUNNY     81  75  82 CALM      30.13S
WAYCROSS       MOSUNNY   85  78  80 CALM      30.13R HX  96
JESUP            N/A     82  77  83 CALM      30.13S HX  91
BRUNSWICK      SUNNY     82  72  69 CALM      30.13S
SAINT SIMONS   SUNNY     83  74  74 CALM      30.12S

$$

SCZ027-028-034-036>038-045-046-048>050-GAZ119-141-011500-
...LAKE AND SUPPLEMENTAL COASTAL OBSERVATIONS...

STATION/POSITION TIME  TEMP    WIND        PRES    WAVE   SWELL
                       AIR SEA DIR/SP/G            HT/PER HT/PER/DIR
                 (UTC) (F)     (DEG/KT/KT) (MB)    (FT/S) (FT/S/D)
UPR LAKE MARION  NOT AVBL
WINYAH BAY       1300   81     270/  3     1020.0S
LAKE MURRAY      1300   81      CALM  /  3 1019.3S
ACE BASIN NERRS  1300   80        CALM     1020.0S
FORT PULASKI     1400   81     280/  5/  6 1020.3S
SAPELO ISLAND    1300   81     350/  2     1021.0R

$$

ANZ835-935-AMZ111-154-330-350-352-354-374-450-454-472-011500-
...C-MAN AND BUOY OBSERVATIONS...

STATION/POSITION TIME  TEMP    WIND        PRES    WAVE   SWELL
                       AIR SEA DIR/SP/G            HT/PER HT/PER/DIR
                 (UTC) (F)     (DEG/KT/KT) (MB)    (FT/S) (FT/S/D)
FOLLY BEACH CMAN 1300   83     310/  4/  8 1020.5R
BUOY 41004       1400   83 83  280/  2/  2 1019.6S   2/ 9   2/ 9
BUOY 41008       1400   82 84  340/  4/  6 1020.1R   2/ 8   2/100/ 8
5E ST. MARYS GA  1400      84                N/A     2/ 8
FRYING PAN BUOY  NOT AVBL
BUOY 41025       1400   81     240/ 12/ 16 1020.0F   3/ 9   2/120/ 9
CAPE LOOKOUT NC  1300   82     210/  7/  9 1020.0S
BUOY 41002       1317   81 83  190/  4/  6 1021.9S   3/ 9   3/110/ 9
BUOY 41010       1400   82 84   90/  6/  8 1020.5R   2/ 9   2/ 90/ 9
BUOY 41012       NOT AVBL
ST AUGUSTINE FL  1400   83     210/  5/  8 1021.1R
CAPERS NEARSHORE 1300   84     320/  6/  6   N/A
FRIPP NEARSHORE  NOT AVBL


$$



USA.gov is the U.S. government's official web portal to all federal, state and local government web resources and services.